User: anonymous   Login
Location: Monrovia
(34.7865°N, 86.7139°W)
Time: 00:44:40
(UTC+00:00)
Language:

Cosmos 1544 - Orbit

View from above orbital plane
View from above orbital plane
View from above satellite
View from above satellite

Ground track
Ground track

The orbit data is extracted from the following two-line orbital elements,

1 14819U 84027A   20273.52241900 +.00001646 +00000-0 +58582-4 0  9990
2 14819 082.4804 258.9309 0014874 125.0500 235.2137 15.28119665998760
Epoch (UTC): 29 September 2020 12:32:17
Eccentricity: 0.0014874
inclination: 82.4804°
perigee height: 471 km
apogee height: 491 km
right ascension of ascending node: 258.9309°
argument of perigee: 125.0500°
revolutions per day: 15.28119665
mean anomaly at epoch: 235.2137°
orbit number at epoch: 99876

The dashed part of the orbit path shows where the satellite is in the earth's shadow,  

DLR